Spokane Fairchild, WA
on Wednesday, November 28, 2012

Wednesday
Previous Day Next Day
Daily Summary
 ActualAverage (KGEG)Record (KGEG)
Temperature
Mean Temperature °F 31°F  
Max Temperature 35°F 36°F 55°F (1883)
Min Temperature 26°F 26°F -13°F (1896)
Degree Days
Heating Degree Days 34 34  
Month to date heating degree days 810  
Since 1 July heating degree days 1598  
Cooling Degree Days 0 0  
Month to date cooling degree days 0  
Year to date cooling degree days 450  
Moisture
Dew Point 33°F   
Average Humidity 100    
Maximum Humidity 100    
Minimum Humidity 100    
Precipitation
Precipitation 0.06 in 0.09 in 0.55 in (1927)
Month to date precipitation 2.13  
Year to date precipitation 14.09  
Snow
Snow 0.00 in 0.40 in 5.30 in (2001)
Month to date snowfall 6.6  
Since 1 July snowfall 6.7  
Since 1 September snowfall 6.7  
Snow Depth in   
Wind
Wind Speed 8 mph   
Max Wind Speed 13 mph   
Max Gust Speed mph   
Visibility 10 miles   
Events Rain   

Key: T is trace of precipitation, MM is missing value
Source: NWS Daily Summary
Time(PST)TemperatureDew PointHumidity Pressure Visibility Wind DirectionWind SpeedGust SpeedPrecipitationEvents Conditions
12:58 AM 30.6°F 30.6°F 100% 30.12 in 10.0 miles NNE 8.1 mph - N/A   Mostly Cloudy
1:58 AM 30.0°F 30.0°F 100% 30.11 in 10.0 miles NNE 6.9 mph - N/A   Mostly Cloudy
2:51 AM 30.2°F 30.2°F 100% 30.03 in 10.0 miles NNE 8.1 mph - N/A   Mostly Cloudy
2:53 AM 30.2°F 30.2°F 100% 30.03 in 10.0 miles NNE 6.9 mph - N/A   Mostly Cloudy
2:58 AM 29.7°F 29.7°F 100% 30.10 in 10.0 miles NNE 6.9 mph - 0.00 in   Mostly Cloudy
3:58 AM 29.1°F 29.1°F 100% 30.09 in 10.0 miles NNE 8.1 mph - N/A   Mostly Cloudy
4:58 AM 28.9°F 28.9°F 100% 30.07 in 10.0 miles North 9.2 mph - N/A   Clear
5:58 AM 28.4°F 28.4°F 100% 30.07 in 10.0 miles NNE 5.8 mph - N/A   Clear
6:55 AM 26.6°F 26.6°F 100% 29.97 in 10.0 miles NNE 10.4 mph - N/A   Clear
6:58 AM 27.5°F 27.5°F 100% 30.05 in 10.0 miles NNE 10.4 mph - 0.00 in   Clear
7:08 AM 26.6°F 26.6°F 100% 29.97 in 10.0 miles NE 5.8 mph - N/A   Clear
7:58 AM 28.9°F 28.9°F 100% 30.04 in 10.0 miles NE 8.1 mph - 0.00 in   Clear
8:58 AM 30.6°F 30.6°F 100% 30.02 in 10.0 miles NNE 10.4 mph - N/A   Clear
9:58 AM 31.6°F 31.6°F 100% 29.99 in 10.0 miles NNE 10.4 mph - N/A   Scattered Clouds
10:07 AM 32.0°F 32.0°F 100% 29.92 in 10.0 miles NNE 12.7 mph - N/A   Partly Cloudy
10:16 AM 32.0°F 32.0°F 100% 29.92 in 10.0 miles NNE 11.5 mph - N/A   Clear
10:58 AM 32.7°F 32.7°F 100% 29.95 in 10.0 miles NNE 11.5 mph - 0.00 in   Partly Cloudy
11:58 AM 34.3°F 34.3°F 100% 29.94 in 10.0 miles NNE 11.5 mph - N/A   Partly Cloudy
12:58 PM 35.6°F 35.6°F 100% 29.92 in 10.0 miles NNE 5.8 mph - N/A   Overcast
1:12 PM 35.6°F 35.6°F 100% 29.83 in 10.0 miles North 8.1 mph - N/A   Light Drizzle
1:17 PM 35.6°F 35.6°F 100% 29.83 in 10.0 miles NNE 8.1 mph - N/A   Mostly Cloudy
1:33 PM 35.6°F 35.6°F 100% 29.82 in 10.0 miles NNE 8.1 mph - N/A   Light Drizzle
1:54 PM 35.6°F 35.6°F 100% 29.82 in 10.0 miles NNE 8.1 mph - N/A   Mostly Cloudy
1:58 PM 35.6°F 35.6°F 100% 29.89 in 10.0 miles NNE 8.1 mph - 0.00 in   Mostly Cloudy
2:58 PM 35.2°F 35.2°F 100% 29.87 in 10.0 miles Variable 2.3 mph - N/A   Clear
3:58 PM 35.4°F 35.4°F 100% 29.87 in 10.0 miles WSW 1.2 mph - N/A   Overcast
4:28 PM 35.6°F 35.6°F 100% 29.80 in 10.0 miles NW 4.6 mph - N/A   Partly Cloudy
4:49 PM 33.8°F 33.8°F 100% 29.81 in 10.0 miles SSW 2.3 mph - N/A   Partly Cloudy
4:58 PM 34.3°F 34.3°F 100% 29.88 in 10.0 miles Calm Calm - 0.00 in   Partly Cloudy
5:35 PM 33.8°F 33.8°F 100% 29.81 in 10.0 miles North 2.3 mph - N/A Rain Light Rain
5:58 PM 34.2°F 34.2°F 100% 29.87 in 8.0 miles NE 4.6 mph - 0.00 in Rain Rain
6:58 PM 34.0°F 34.0°F 100% 29.86 in 7.0 miles ENE 8.1 mph - 0.04 in Rain Light Rain
7:58 PM 34.2°F 34.2°F 100% 29.86 in 10.0 miles NNE 8.1 mph - 0.01 in Rain Light Rain
8:58 PM 34.3°F 34.3°F 100% 29.86 in 10.0 miles NE 10.4 mph - 0.01 in Rain Light Rain
9:11 PM 33.8°F 33.8°F 100% 29.80 in 10.0 miles NE 5.8 mph - N/A   Overcast
9:58 PM 34.3°F 34.3°F 100% 29.88 in 10.0 miles NE 6.9 mph - 0.00 in   Overcast
10:11 PM 33.8°F 33.8°F 100% 29.81 in 10.0 miles ENE 5.8 mph - N/A   Overcast
10:22 PM 33.8°F 33.8°F 100% 29.81 in 10.0 miles NE 6.9 mph - N/A   Overcast
10:37 PM 33.8°F 33.8°F 100% 29.81 in 10.0 miles ENE 6.9 mph - N/A   Overcast
10:47 PM 32.0°F 32.0°F 100% 29.82 in 10.0 miles ENE 5.8 mph - N/A   Overcast
10:58 PM 33.6°F 33.6°F 100% 29.89 in 10.0 miles ENE 5.8 mph - 0.00 in   Overcast
11:56 PM 35.6°F 35.6°F 100% 29.82 in 10.0 miles SSE 10.4 mph - N/A   Mostly Cloudy
11:58 PM 35.6°F 35.6°F 100% 29.88 in 10.0 miles South 9.2 mph - N/A   Mostly Cloudy
Moon Phase
Nov. 28 Dec. 06 Dec. 13 Dec. 20 Dec. 28
Sunrise:07:14 AM (PST) Moon Rise:04:20 PM (PST)11/28
Sunset:04:02 PM (PST) Moon Set:07:16 AM (PST)11/28

Copyright © 2014 The Weather Underground, Inc.